Weather History for Alexander City, AL

Change the Weather History Date:

Monday, March 10, 2014

  Actual Average (KAUO) Record (KAUO)
Temperature  
Mean Temperature 58 °F -  
Max Temperature 75 °F - 88 °F (1974)
Min Temperature 42 °F - 25 °F (1969)
Degree Days  
Heating Degree Days 6    
Month to date heating degree days  
Since 1 July heating degree days  
Cooling Degree Days 0    
Month to date cooling degree days  
Year to date cooling degree days  
Growing Degree Days 8 (Base 50)    
Moisture  
Dew Point 45 °F    
Average Humidity 63    
Maximum Humidity 85    
Minimum Humidity 31    
Precipitation  
Precipitation 0.00 in - 2.00 in (1968)
Month to date precipitation  
Year to date precipitation  
Sea Level Pressure  
Sea Level Pressure 30.06 in    
Wind  
Wind Speed 2 mph (West)    
Max Wind Speed 13 mph    
Max Gust Speed 20 mph    
Visibility 9 miles    
Events      
T = Trace of Precipitation, MM = Missing Value Source: NWS Daily Summary

Daily Weather History Graph

Daily Weather History Graph

Search for Another Location

Airport:

Trip Planner

Search our weather history database for the weather conditions in past years. The results will help you decide how hot, cold, wet, or windy it might be!

Date:

Astronomy

Mar. 10, 2014 Rise Set
Actual Time 7:00 AM CDT 6:48 PM CDT
Civil Twilight 6:35 AM CDT 7:12 PM CDT
Nautical Twilight 6:07 AM CDT 7:41 PM CDT
Astronomical Twilight 5:38 AM CDT 8:10 PM CDT
Moon 1:43 PM CDT (3/10) 2:59 AM CDT (3/10)
Length of Visible Light 12h 36m
Length of Day
11h 47m
Waxing Gibbous, 70% of the Moon is Illuminated
Mar 10
Waxing Gibbous
Mar 16
Full
Mar 23
Last Quarter
Mar 30
New
Apr 7
First Quarter

Hourly Weather History & Observations

Time (CDT) Temp. Dew Point Humidity Pressure Visibility Wind Dir Wind Speed Gust Speed Precip Events Conditions
12:15 AM 50.2 °F 43.7 °F 78% 30.15 in 10.0 mi Calm Calm - N/A   Clear
12:35 AM 50.2 °F 44.2 °F 80% 30.14 in 10.0 mi Calm Calm - N/A   Clear
12:55 AM 50.2 °F 45.0 °F 82% 30.14 in 10.0 mi Calm Calm - N/A   Clear
1:15 AM 50.2 °F 44.8 °F 82% 30.14 in 10.0 mi Calm Calm - N/A   Clear
1:35 AM 50.2 °F 45.0 °F 82% 30.14 in 10.0 mi Calm Calm - N/A   Clear
1:55 AM 50.2 °F 44.4 °F 81% 30.14 in 10.0 mi Calm Calm - N/A   Clear
2:15 AM 50.2 °F 45.1 °F 83% 30.13 in 10.0 mi Calm Calm - N/A   Clear
2:35 AM 47.7 °F 42.8 °F 83% 30.12 in 10.0 mi Calm Calm - N/A   Clear
2:55 AM 50.2 °F 45.3 °F 83% 30.12 in 10.0 mi Calm Calm - N/A   Clear
3:15 AM 47.7 °F 42.8 °F 83% 30.11 in 10.0 mi Calm Calm - N/A   Clear
3:35 AM 47.7 °F 42.8 °F 83% 30.11 in 10.0 mi Calm Calm - N/A   Clear
4:00 AM 50.2 °F 45.3 °F 83% 30.10 in 10.0 mi Calm Calm - N/A   Clear
4:15 AM 45.9 °F 41.0 °F 83% 30.09 in 7.0 mi Calm Calm - N/A   Clear
4:35 AM 46.4 °F 41.9 °F 84% 30.09 in 10.0 mi Calm Calm - N/A   Clear
4:55 AM 43.9 °F 39.0 °F 83% 30.09 in 10.0 mi Calm Calm - N/A   Clear
5:15 AM 43.3 °F 38.8 °F 84% 30.09 in 7.0 mi Calm Calm - N/A   Clear
5:35 AM 43.3 °F 38.8 °F 84% 30.09 in 5.0 mi Calm Calm - N/A   Clear
5:55 AM 43.5 °F 39.0 °F 84% 30.10 in 10.0 mi Calm Calm - N/A   Clear
6:15 AM 43.0 °F 38.5 °F 84% 30.10 in 10.0 mi Calm Calm - N/A   Clear
6:35 AM 43.9 °F 39.4 °F 84% 30.11 in 10.0 mi Calm Calm - N/A   Clear
6:55 AM 43.9 °F 39.4 °F 84% 30.11 in 7.0 mi Calm Calm - N/A   Clear
7:15 AM 42.8 °F 38.3 °F 84% 30.12 in 5.0 mi Calm Calm - N/A   Haze
7:35 AM 42.6 °F 38.1 °F 84% 30.12 in 5.0 mi Calm Calm - N/A   Haze
7:55 AM 44.1 °F 39.7 °F 85% 30.13 in 5.0 mi Calm Calm - N/A   Clear
8:15 AM 50.2 °F 45.5 °F 84% 30.14 in 10.0 mi Calm Calm - N/A   Clear
8:40 AM 52.0 °F 45.9 °F 80% 30.14 in 10.0 mi Calm Calm - N/A   Clear
8:55 AM 55.4 °F 47.8 °F 76% 30.14 in 10.0 mi Calm Calm - N/A   Clear
9:15 AM 57.7 °F 47.8 °F 70% 30.14 in 10.0 mi Calm Calm - N/A   Clear
9:35 AM 60.3 °F 45.5 °F 58% 30.14 in 10.0 mi West 3.5 mph - N/A   Clear
9:55 AM 63.1 °F 45.1 °F 52% 30.14 in 10.0 mi WNW 6.9 mph - N/A   Clear
10:15 AM 65.5 °F 46.6 °F 50% 30.14 in 10.0 mi NNW 9.2 mph - N/A   Clear
10:35 AM 66.0 °F 46.6 °F 49% 30.13 in 10.0 mi NW 4.6 mph - N/A   Clear
10:55 AM 70.7 °F 49.5 °F 47% 30.13 in 10.0 mi WSW 11.5 mph 16.1 mph N/A   Clear
11:15 AM 70.7 °F 49.3 °F 47% 30.13 in 10.0 mi NW 6.9 mph - N/A   Clear
11:35 AM 70.7 °F 48.9 °F 46% 30.11 in 10.0 mi WNW 8.1 mph - N/A   Scattered Clouds
11:55 AM 70.7 °F 46.9 °F 43% 30.11 in 10.0 mi West 9.2 mph 16.1 mph N/A   Scattered Clouds
12:15 PM 70.7 °F 47.3 °F 43% 30.10 in 10.0 mi WNW 10.4 mph - N/A   Scattered Clouds
12:35 PM 71.8 °F 47.1 °F 41% 30.09 in 10.0 mi WNW 5.8 mph 18.4 mph N/A   Mostly Cloudy
12:55 PM 72.9 °F 47.8 °F 41% 30.08 in 10.0 mi WSW 10.4 mph 17.3 mph N/A   Scattered Clouds
1:20 PM 73.2 °F 47.8 °F 41% 30.07 in 10.0 mi West 10.4 mph 19.6 mph N/A   Scattered Clouds
1:35 PM 74.1 °F 48.6 °F 40% 30.06 in 10.0 mi WNW 10.4 mph - N/A   Scattered Clouds
1:55 PM 74.3 °F 48.7 °F 40% 30.04 in 10.0 mi West 9.2 mph 16.1 mph N/A   Scattered Clouds
2:15 PM 73.8 °F 48.4 °F 41% 30.04 in 10.0 mi WNW 8.1 mph 18.4 mph N/A   Scattered Clouds
2:35 PM 75.6 °F 46.9 °F 36% 30.03 in 10.0 mi West 12.7 mph 18.4 mph N/A   Scattered Clouds
2:55 PM 75.6 °F 47.5 °F 37% 30.02 in 10.0 mi West 9.2 mph 19.6 mph N/A   Scattered Clouds
3:15 PM 75.6 °F 46.4 °F 35% 30.01 in 10.0 mi West 12.7 mph 19.6 mph N/A   Scattered Clouds
3:35 PM 75.6 °F 44.6 °F 33% 30.00 in 10.0 mi West 9.2 mph 18.4 mph N/A   Scattered Clouds
3:55 PM 75.6 °F 42.4 °F 31% 29.99 in 10.0 mi WSW 10.4 mph 17.3 mph N/A   Scattered Clouds
4:15 PM 75.6 °F 43.0 °F 31% 29.98 in 10.0 mi West 10.4 mph - N/A   Clear
4:35 PM 75.6 °F 43.0 °F 31% 29.98 in 10.0 mi WSW 8.1 mph - N/A   Clear
4:55 PM 75.6 °F 42.4 °F 31% 29.98 in 10.0 mi West 11.5 mph 18.4 mph N/A   Clear
5:15 PM 75.6 °F 43.7 °F 32% 29.97 in 10.0 mi WNW 8.1 mph - N/A   Clear
5:35 PM 75.6 °F 44.4 °F 33% 29.97 in 10.0 mi West 4.6 mph - N/A   Clear
5:55 PM 75.6 °F 44.6 °F 33% 29.97 in 10.0 mi West 9.2 mph - N/A   Clear
6:15 PM 75.6 °F 46.8 °F 36% 29.97 in 10.0 mi West 5.8 mph - N/A   Clear
6:35 PM 71.8 °F 45.5 °F 39% 29.97 in 10.0 mi WNW 3.5 mph - N/A   Clear
6:55 PM 70.7 °F 45.9 °F 41% 29.96 in 10.0 mi Calm Calm - N/A   Clear
7:15 PM 70.7 °F 49.6 °F 47% 29.97 in 10.0 mi Calm Calm - N/A   Clear
7:35 PM 63.0 °F 47.3 °F 57% 29.97 in 10.0 mi Calm Calm - N/A   Clear
7:55 PM 61.2 °F 48.7 °F 64% 29.98 in 10.0 mi Calm Calm - N/A   Clear
8:15 PM 60.3 °F 49.1 °F 67% 29.98 in 10.0 mi Calm Calm - N/A   Clear
8:35 PM 58.6 °F 48.7 °F 70% 29.99 in 10.0 mi Calm Calm - N/A   Clear
8:55 PM 60.3 °F 49.8 °F 68% 29.98 in 10.0 mi Calm Calm - N/A   Clear
9:15 PM 57.7 °F 48.6 °F 71% 29.99 in 7.0 mi Calm Calm - N/A   Clear
9:35 PM 57.7 °F 50.4 °F 76% 29.99 in 7.0 mi Calm Calm - N/A   Clear
9:55 PM 57.7 °F 50.2 °F 76% 29.99 in 10.0 mi Calm Calm - N/A   Clear
10:15 PM 57.7 °F 51.6 °F 80% 29.98 in 7.0 mi Calm Calm - N/A   Clear
10:35 PM 55.4 °F 48.6 °F 78% 29.98 in 7.0 mi Calm Calm - N/A   Clear
10:55 PM 55.4 °F 48.6 °F 78% 29.97 in 7.0 mi Calm Calm - N/A   Clear
11:15 PM 55.4 °F 49.1 °F 79% 29.97 in 7.0 mi Calm Calm - N/A   Clear
11:35 PM 52.7 °F 47.3 °F 82% 29.96 in 7.0 mi Calm Calm - N/A   Clear
11:55 PM 52.3 °F 47.1 °F 82% 29.96 in 7.0 mi Calm Calm - N/A   Clear